Flag for Cuba Weather past 2 weeks in Santa Clara, Cuba

Now
73 °F

Mild.


Feels Like: 73 °F
Forecast: 73 / 94 °F
Wind: 3 mph from East

Location: Cienfuegos - Las Villas

Current Time: Aug 2, 2015 at 2:29:02 AM

Latest Report: Aug 2, 2015 at 1:59 AM


Visibility: N/A

Pressure: 30.01 "Hg

Humidity: 83%

Dew point: 68 °F

Location of Santa ClaraLocation

Historic Weather in Santa Clara — Graph

°F

Santa Clara temperature yesterday

Maximum temperature yesterday: 91 °F (at 11:59 AM)
Minimum temperature yesterday: 73 °F (at 3:59 AM)
Average temperature yesterday: 82 °F

Past Weeks' High & Low Weather Summary

 TemperatureHumidityPressure
High99 °F (Jul 28, 4:59 PM)100% (Jul 18, 6:59 AM)30.09 "Hg (Jul 18, 6:59 AM)
Low46 °F (Jul 31, 7:50 PM)39% (Jul 28, 1:52 PM)29.95 "Hg (Jul 26, 2:59 AM)
Average82 °F76%30.02 "Hg
* Reported Jul 18 12:59 AM — Aug 2 12:59 AM, Santa Clara, Weather by CustomWeather, © 2015

Note: Actual official high and low records may vary slightly from our data, if they occured in-between our weather recording intervals... More about our weather records

Advertising

Santa Clara weather history for previous 24 hours

 ConditionsComfort  
Time TempWeatherWind HumidityBarometerVisibility
12:59 AM
Sun, Aug 2
73 °FMild.2 mph83%30.01 "HgN/A
11:59 PM
Sat, Aug 1
75 °FMild.5 mph78%30.01 "HgN/A
10:59 PM77 °FWarm.6 mph83%30.01 "HgN/A
9:59 PM82 °FWarm.8 mph79%30.01 "HgN/A
8:59 PM84 °FWarm.3 mph74%29.98 "HgN/A
7:59 PM86 °FWarm.6 mph70%29.98 "HgN/A
6:59 PM86 °FWarm.10 mph75%29.95 "HgN/A
5:59 PM86 °FWarm.8 mph70%29.95 "HgN/A
4:59 PM86 °FWarm.12 mph70%29.95 "HgN/A
3:59 PM88 °FWarm.12 mph62%29.95 "HgN/A
2:59 PM91 °FHot.13 mph59%29.98 "HgN/A
1:59 PM90 °FHot.13 mph59%29.98 "HgN/A
12:59 PM91 °FHot.12 mph59%30.01 "HgN/A
11:59 AM91 °FHot.9 mph59%30.01 "HgN/A
10:59 AM90 °FHot.3 mph59%30.01 "HgN/A
9:59 AM86 °FWarm.3 mph66%30.01 "HgN/A
8:59 AM82 °FWarm.3 mph74%30.01 "HgN/A
7:59 AM77 °FWarm.5 mph83%30.01 "HgN/A
6:59 AM73 °FMild.3 mph89%29.98 "HgN/A
5:59 AM73 °FMild.3 mph89%29.98 "HgN/A
4:59 AM73 °FMild.5 mph89%29.98 "HgN/A
3:59 AM73 °FMild.5 mph89%30.01 "HgN/A
2:59 AM79 °FWarm.1 mph74%30.01 "HgN/A
Weather by CustomWeather, © 2015

See weather overviewHow to use our weather pages